User: anonymous   Login
Location: Radford
(37.1320°N, 80.5770°W)
Time: 21:15:21
(UTC-04:00)
Language:

Okean 1-7 - Orbit

View from above orbital plane
View from above orbital plane
View from above satellite
View from above satellite

Ground track
Ground track

The orbit data is extracted from the following two-line orbital elements,

1 23317U 94066A   17149.49923163 +.00000226 +00000-0 +22158-4 0  9992
2 23317 082.5360 135.8882 0021189 124.2228 236.1001 14.87399239223161
Epoch (UTC): 29 May 2017 11:58:53
Eccentricity: 0.0021189
inclination: 82.5360°
perigee height: 591 km
apogee height: 621 km
right ascension of ascending node: 135.8882°
argument of perigee: 124.2228°
revolutions per day: 14.87399239
mean anomaly at epoch: 236.1001°
orbit number at epoch: 22316

The dashed part of the orbit path shows where the satellite is in the earth's shadow,  

DLR